Airfield :
LOGIN :

Register | Disclaimer

   EN    FR    IT 

 










Legend :    VFR   Marginal VFR   IFR   Intensive IFR   Very Intensive IFR
Visi :
Ceiling :
>= 8 km
>= 3000ft
5 to 8 km
1000 to 3000 ft
1500m to 5 km
500 to 1000 ft
800 to 1500m
200 to 500 ft
< 800m
< 200 ft
Symbols :   Thunderstorms  Fog  Heavy snow  Heavy precipitations  Wind > 20 kt
SIGMETs :     Misc.  Thunderstorms  Icing  Turbulence  Mountain Waves  Volcanic Ashes







- Airport Elevation : 144 ft
- IATA code : PGF
- Download approach charts


LFMP - Perpignan

CURRENT METAR :
  • 231330Z AUTO 28010KT 250V320 CAVOK 34/14 Q1019 NOSIG

EXPIRED METARs :
  • 231300Z AUTO 28008KT 230V330 CAVOK 33/14 Q1019 NOSIG
  • 231230Z AUTO 30008KT 260V350 CAVOK 33/15 Q1020 NOSIG
  • 231200Z AUTO 26007KT 210V300 CAVOK 33/15 Q1020 NOSIG
  • 231130Z AUTO 29008KT 250V330 CAVOK 32/14 Q1020 NOSIG
  • 231100Z AUTO 29008KT 250V340 CAVOK 31/15 Q1021 NOSIG

TAF TAF LFMP
Valid from the 23 at 09:00 until the 24 at 09:00 UTC


230800Z 2309/2409 31008KT CAVOK
BECMG 2318/2320 32020G30KT
ATIS : +33 4 68 63 75 12
No reported NOTAMs for that airfield.



MET'MAP, your aeronautical weather chart ! - Copyright ORBIFLY December 2007 - Disclaimer

ORBIFLY MET'MAP TEAM :

Programming & Development : Alexandra Zaïnal
Concept & Development : Baudouin d'Aumeries
Co-Development & Prog : Marc-Olivier Méhu
Technical & hardware support : Manuel Goepfert

Contact : metmap@orbifly.com




SOURCES & CREDITS :

   NOAA